Miscellaneous Local Product
Issued by NWS Hastings, NE

Home | Current Version | Previous Version | Graphics & Text | Print | Product List | Glossary On
Versions: 1 2 3 4 5 6 7 8 9 10 11 12 13 14 15 16 17 18 19 20 21 22 23 24 25 26 27 28 29 30 31 32 33 34 35 36 37 38 39 40 41 42 43 44 45 46 47 48 49 50
000
AXUS43 KGID 031702
MISGRI

GID CWA HOURLY WEATHER ROUNDUP
NATIONAL WEATHER SERVICE HASTINGS NE
1200 PM CDT THU SEP 03 2015

NOTE: "FAIR" INDICATES FEW OR NO CLOUDS BELOW 12,000 FEET WITH NO
SIGNIFICANT WEATHER AND/OR OBSTRUCTIONS TO VISIBILITY.

...SOUTH CENTRAL NEBRASKA...

CITY           SKY/WX    TMP DP  RH WIND       PRES   REMARKS
GRAND ISLAND   SUNNY     87  63  44 S10       29.85S
HASTINGS       SUNNY     87  63  44 S10G18    29.84S
KEARNEY        SUNNY     84  63  48 S13       29.84S
ORD            SUNNY     86  63  45 S7        29.81F
YORK           SUNNY     84  66  54 S8        29.85S
AURORA         SUNNY     86  64  47 S9        29.84F
LEXINGTON      MOSUNNY   83  64  52 S7        29.84S
HOLDREGE       MOSUNNY   85  60  42 S12       29.84S
HEBRON         SUNNY     87  61  41 S14       29.85F

...NEBRASKA PANHANDLE...

CITY           SKY/WX    TMP DP  RH WIND       PRES   REMARKS
CHADRON        SUNNY     92  48  22 VRB3      29.84S
ALLIANCE       MOSUNNY   86  47  25 CALM      29.90F
SCOTTSBLUFF    MOSUNNY   85  53  33 CALM      29.92S
SIDNEY         MOSUNNY   90  46  21 VRB5      29.95S

...WESTERN AND NORTH CENTRAL NEBRASKA...

CITY           SKY/WX    TMP DP  RH WIND       PRES   REMARKS
VALENTINE      SUNNY     95  50  21 SE15      29.82S HX  92
AINSWORTH      SUNNY     91  64  40 SE9       29.83F HX  93
ONEILL         SUNNY     84  67  56 S6        29.83S
BROKEN BOW     SUNNY     85  64  49 SE6       29.84S
IMPERIAL       MOSUNNY   87  61  41 VRB3      29.86F
NORTH PLATTE   PTSUNNY   83  62  49 SE5       29.84S
MCCOOK         MOSUNNY   88  60  38 VRB3      29.83S

...EASTERN NEBRASKA...

CITY           SKY/WX    TMP DP  RH WIND       PRES   REMARKS
NORFOLK        SUNNY     83  68  60 S10       29.83F
SO SIOUX CITY  SUNNY     83  70  64 SE8       29.84S
TEKAMAH        SUNNY     85  70  60 S10       29.85F
COLUMBUS       SUNNY     84  66  54 S8        29.84S
ALBION         SUNNY     82  66  59 SE7       29.84S
OMAHA EPPLEY   MOSUNNY   85  69  58 SE14      29.86F
OFFUTT AFB     SUNNY     85  69  58 S13       29.86F
MILLARD        SUNNY     84  70  64 SE9       29.86F
LINCOLN        SUNNY     88  67  49 S14       29.86R HX  91
NEBRASKA CITY  SUNNY     87  60  41 S14       29.88S
BEATRICE       SUNNY     87  66  50 S14G24    29.86F
FALLS CITY     SUNNY     88  68  51 S14       29.89F HX  91

...NORTHERN KANSAS...

CITY           SKY/WX    TMP DP  RH WIND       PRES   REMARKS
GOODLAND       MOSUNNY   87  49  26 S9        29.90S
HILL CITY      SUNNY     91  59  33 S12       29.83F HX  90
NORTON         SUNNY     88  54  31 SE9       29.83S
PHILLIPSBURG   SUNNY     91  57  31 S12G18    29.83F HX  90
SMITH CENTER   SUNNY     88  57  35 S15       29.85S
HAYS             N/A    N/A N/A N/A MISG        N/A
RUSSELL        SUNNY     91  60  35 S20G26    29.84S HX  90
CONCORDIA      SUNNY     87  65  47 S16G25    29.86F
SALINA         SUNNY     92  64  39 S20G29    29.87F HX  93
TOPEKA         SUNNY     88  67  49 S10       29.92F HX  91



USA.gov is the U.S. government's official web portal to all federal, state and local government web resources and services.